Showing default

ASNARO-2, 43152

Orbit data source: Space-Track

ASNARO-2, 43152 is a payload satellite owned by J-spacesystems (JP) in SSO that was launched on Wed, 17 Jan 2018 UTC via an EPSILON launch vehicle from the Kagoshima Space Center University Of Tokyo (KSCUT). Payload-class satellites include a variety of spacecraft equipped with specific instruments for various scientific and technological missions. These include communications satellites like Starlink; space stations such as the ISS; scientific satellites like the Hubble; Earth observation satellites from companies like Planet Labs, Umbra, and HawkEye 360; GPS; miniature CubeSats for education and research; and military/defense satellites.

Loading next visibility...
Identifier
43152, 2018-007A
Orbit
SSO
Country
Flag of JPJP / JPN
Related business
Manufacturer
NEC Toshiba/Fuchu
Mission
Operational Commercial Radar Imaging
Bus & Motor
NEXTAR-300L, AOCS?
Mass
570 kg wet, ~500 kg dry
Launch date (UTC)
2018-01-17 (9 years ago)
Launch vehicle
EPSILON
Launch site
Kagoshima Space Center University Of Tokyo (KSCUT)
Object type
Payload
Rocket body
Debris
Shape & HBR
Cyl + 2 Pan + 1 Dish, 2.2 m
Radar Cross Section
9.327 m², Large (>1 m²)

Expand to show TLE details & history
Last TLE update: 10 hours ago

TLE from 10 hours ago
0 ASNARO-2
1 43152U 18007A   26254.28906899  .00005664  00000-0  24818-3 0  9998
2 43152  97.3995 259.8804 0001754  89.3413 270.8025 15.22396058480513
Epoch: 2026-09-11T06:56Z
TLE epoch observation values (Epoch: 2026-09-11T06:56:15.560Z)
Latitude
0.00002°
Longitude
165.501°
Altitude
501.693 km
Speed
7.614 km/s
True Right ascension
17h 19m 31s
True Declination
0° 00' 00"
Sunlit
Object was in daylight at epoch
Visualization orbit readout
Latitude
Unknown
Longitude
Unknown
Altitude
Unknown
Speed
Unknown
Apparent Right ascension
Unknown
Apparent Declination
Unknown
Sunlit
N/A
Visualization observer readout
Local Sidereal Time
09:03:00
Azimuth
Unknown
Elevation
Unknown
Doppler factor
Unknown
Orbital elements
Apogee altitude
496.784 km
Perigee altitude
494.372 km
Semi-major axis
6,873.715 km
Eccentricity
0.00018
Inclination
97.3995°
RAAN
259.8804°
Arg. of periapsis
89.3413°
True anomaly
270.7824°
Mean anomaly
270.8025°
Eccentric anomaly
270.79245°
Mean motion
3.80852 °/min
Orbital period
94.52 mins
BSTAR
0.00024818
Loading maneuver chart data...
Computing Atmospheric mass density...
Loading historical data...
Loading historical data...
Loading historical data...
Loading historical data...
Loading historical data...
Loading historical data...
Loading historical data...
Other satellites on launch #7 in the year 2018 (2018-01-17 UTC)

Documentation

Showing up to 5 results
|